Location: Elstree
(51.6403°N, 0.2969°W)
Time: 13:44:25
(UTC+00:00)

Cosmos 1354 Rocket - Pass Details

Date: 23 June 2021
Orbit: 764 x 783 km, 74.0° (Epoch: 25 July)

Event Time Altitude Azimuth Distance (km) Brightness Sun altitude
Rises 21:38:27 0° 335° (NNW) 3,285 9.5 -8.5°
Reaches altitude 10° 21:40:52 10° 338° (NNW) 2,353 8.1 -8.7°
Maximum altitude 21:46:13 74° 63° (ENE) 819 4.2 -9.1°
Enters shadow 21:51:08 12° 149° (SSE) 2,180 5.7 -9.5°
